Flag for Belgium Weather past 2 weeks in Leuven, Belgium

Now
50 °F

Partly cloudy.


Feels Like: 43 °F
Forecast: 43 / 51 °F
Wind: 24 mph from Southwest

Location: Brussels National Airport

Current Time: Mar 29, 2015 at 3:07:39 AM

Latest Report: Mar 29, 2015 at 1:20 AM


Visibility: N/A

Pressure: 29.77 "Hg

Humidity: 82%

Dew point: 45 °F

Location of LeuvenLocation

Historic Weather in Leuven — Graph

°F

Leuven temperature yesterday

Maximum temperature yesterday: 54 °F (at 5:20 PM)
Minimum temperature yesterday: 34 °F (at 12:20 AM)
Average temperature yesterday: 46 °F

Past Weeks' High & Low Weather Summary

 TemperatureHumidityPressure
High63 °F (Mar 17, 2:50 PM)100% (Mar 16, 8:20 AM)30.42 "Hg (Mar 16, 8:20 AM)
Low28 °F (Mar 23, 2:50 AM)39% (Mar 17, 3:50 PM)29.68 "Hg (Mar 26, 1:50 PM)
Average42 °F82%30.12 "Hg
* Reported Mar 14 12:20 AM — Mar 29 12:50 AM, Leuven, Weather by CustomWeather, © 2015

Note: Actual official high and low records may vary slightly from our data, if they occured in-between our weather recording intervals... More about our weather records

Advertising

Leuven weather history for previous 24 hours

 ConditionsComfort  
Time TempWeatherWind HumidityBarometerVisibility
12:50 AM
Sun, Mar 29
52 °FPassing clouds.22 mph82%29.80 "HgN/A
12:20 AM52 °FPassing clouds.21 mph82%29.80 "HgN/A
11:50 PM
Sat, Mar 28
52 °FPassing clouds.20 mph82%29.80 "HgN/A
11:20 PM54 °FPassing clouds.22 mph77%29.80 "HgN/A
10:50 PM54 °FPassing clouds.22 mph82%29.83 "HgN/A
9:50 PM54 °FPassing clouds.18 mph88%29.80 "HgN/A
9:20 PM54 °FLight rain. Passing clouds.18 mph88%29.83 "Hg4 mi
8:50 PM54 °FPassing clouds.18 mph88%29.83 "HgN/A
8:20 PM52 °FLight rain. Passing clouds.15 mph94%29.83 "Hg6 mi
7:50 PM52 °FPassing clouds.15 mph94%29.86 "Hg4 mi
7:20 PM52 °FDrizzle. Fog.14 mph94%29.86 "Hg2 mi
6:50 PM52 °FDrizzle. Fog.13 mph94%29.86 "Hg2 mi
6:20 PM54 °FSprinkles. Partly sunny.13 mph88%29.86 "HgN/A
5:50 PM54 °FBroken clouds.15 mph88%29.86 "HgN/A
5:20 PM54 °FPartly sunny.17 mph82%29.86 "HgN/A
4:50 PM52 °FBroken clouds.16 mph88%29.89 "HgN/A
4:20 PM52 °FBroken clouds.14 mph88%29.92 "HgN/A
3:50 PM50 °FPartly sunny.14 mph94%29.92 "HgN/A
3:20 PM50 °FPartly sunny.16 mph94%29.92 "HgN/A
2:50 PM50 °FDrizzle. Partly sunny.17 mph88%29.95 "Hg4 mi
2:20 PM48 °FDrizzle. Partly sunny.18 mph94%29.95 "Hg6 mi
1:50 PM48 °FDrizzle. Broken clouds.17 mph94%29.98 "Hg4 mi
1:20 PM48 °FDrizzle. Partly sunny.18 mph87%29.98 "HgN/A
12:50 PM46 °FDrizzle. Broken clouds.18 mph93%29.98 "HgN/A
12:20 PM46 °FDrizzle. Partly sunny.17 mph93%29.98 "HgN/A
11:50 AM46 °FDrizzle. Broken clouds.13 mph93%30.01 "Hg4 mi
11:20 AM46 °FDrizzle. Broken clouds.14 mph87%30.01 "Hg6 mi
10:50 AM46 °FDrizzle. Partly sunny.14 mph87%30.04 "HgN/A
10:20 AM46 °FDrizzle. Partly sunny.15 mph82%30.04 "HgN/A
9:50 AM46 °FLight rain. Partly sunny.14 mph82%30.04 "HgN/A
9:20 AM46 °FPartly sunny.14 mph76%30.07 "HgN/A
8:50 AM45 °FPartly sunny.13 mph76%30.07 "HgN/A
8:20 AM45 °FBroken clouds.13 mph76%30.07 "HgN/A
7:50 AM43 °FScattered clouds.12 mph76%30.09 "HgN/A
7:20 AM41 °FSunny.9 mph81%30.09 "Hg10 mi
6:50 AM41 °FSunny.10 mph76%30.09 "Hg10 mi
6:20 AM41 °FClear.10 mph76%30.12 "Hg10 mi
5:50 AM41 °FPassing clouds.10 mph76%30.12 "HgN/A
5:20 AM41 °FPassing clouds.7 mph76%30.12 "HgN/A
4:50 AM41 °FPassing clouds.7 mph81%30.15 "HgN/A
4:20 AM41 °FClear.8 mph81%30.15 "Hg10 mi
3:50 AM41 °FClear.7 mph81%30.15 "Hg10 mi
3:20 AM39 °FPassing clouds.7 mph87%30.18 "HgN/A
Weather by CustomWeather, © 2015

See weather overviewHow to use our weather pages